Overview Statistics Trail Chart Weather Telemetry Raw packets
 

This is the latest recevied weather packets stored in our database for station/object K5IDL. If no packets are shown the sender has not sent any weather packets the latest 10 day(s).

<< 93 94 95 96 97 98 99 >>
Time Temp. Humidity Pressure Rain* Wind** Luminosity Snow
1788014503 32.78° C 56% 1019.2 hPa 0 mm - 281 W/m² -
1788014198 32.78° C 56% 1019.2 hPa 0 mm - 267 W/m² -
1788013897 32.22° C 59% 1019.2 hPa 0 mm - 252 W/m² -
1788013597 32.78° C 56% 1019.3 hPa 0 mm - 238 W/m² -
1788013291 32.78° C 56% 1019.1 hPa 0 mm - 223 W/m² -
1788012985 32.22° C 57% 1019.2 hPa 0 mm - 211 W/m² -
1788012680 31.11° C 60% 1019.1 hPa 0 mm - 197 W/m² -
1788012375 31.67° C 58% 1019.2 hPa 0 mm - 182 W/m² -
1788012064 31.67° C 57% 1019.2 hPa 0 mm - 171 W/m² -
1788011763 32.78° C 54% 1019.3 hPa 0 mm - 158 W/m² -
1788011457 32.22° C 57% 1019.2 hPa 0 mm - 146 W/m² -
1788011156 32.22° C 57% 1019.5 hPa 0 mm - 135 W/m² -
1788010852 31.11° C 59% 1019.2 hPa 0 mm - 124 W/m² -
1788010550 30° C 63% 1019.2 hPa 0 mm - 111 W/m² -
1788010245 30.56° C 62% 1019.2 hPa 0 mm - 101 W/m² -
1788009945 30° C 64% 1019.2 hPa 0 mm - 92 W/m² -
1788009639 30° C 62% 1019.3 hPa 0 mm - 84 W/m² -
1788009333 30° C 64% 1019.3 hPa 0 mm - 75 W/m² -
1788009027 30° C 63% 1019.2 hPa 0 mm - 66 W/m² -
1788008723 30.56° C 64% 1019.3 hPa 0 mm - 58 W/m² -
1788008422 30° C 66% 1019.1 hPa 0 mm - 51 W/m² -
1788008120 29.44° C 65% 1019 hPa 0 mm - 44 W/m² -
1788007819 28.89° C 68% 1019 hPa 0 mm - 38 W/m² -
1788007517 28.33° C 68% 1019 hPa 0 mm - 31 W/m² -
1788007211 27.78° C 71% 1019 hPa 0 mm - 26 W/m² -

* Rain latest hour (hover to see other rain measurements)
** Current wind speed in m/s (hover to see current wind gust speed)